CZ-6A DEB, 54583

Orbit data source: Space-Track

CZ-6A DEB, 54583 is space debris in SSO originally from a launch on Fri, 11 Nov 2022 UTC launched from the Taiyaun Space Center, China (TSC). Debris objects in space refer to the collection of defunct objects orbiting the Earth. Examples of debris include non-operational satellites, rocket bodies, and fragments generated from explosions, collisions, or faulty payload assembly.

Loading next visibility...
Identifier
54583, 2022-151MK
Orbit
SSO
Country
Flag of CNCN / PRC
Related business
Manufacturer
SAST
Mission
Spacecraft
Bus & Motor
Unknown
Mass
Unknown
Launch date (UTC)
2022-11-11 (3 years ago)
Launch vehicle
Unknown
Launch site
Taiyaun Space Center, China (TSC)
Object type
Payload
Rocket body
Debris
Shape & HBR
Unknown shape, 0.1 m
Radar Cross Section
Small (<0.1 m²)

Expand to show TLE details & history
Last TLE update: 1 day ago

TLE from 1 day ago
0 CZ-6A DEB
1 54583U 22151MK  25349.93551657  .00001623  00000-0  95687-3 0  9990
2 54583  98.8478 336.4001 0086852 179.7035 180.4201 14.07409989157740
Epoch: 2025-12-15T22:27Z
TLE epoch observation values (Epoch: 2025-12-15T22:27:08.631Z)
Latitude
0.00003°
Longitude
-85.21281°
Altitude
934.088 km
Speed
7.353 km/s
True Right ascension
22h 25m 36s
True Declination
0° 00' 00"
Sunlit
Object was in daylight at epoch
Visualization orbit readout
Latitude
Unknown
Longitude
Unknown
Altitude
Unknown
Speed
Unknown
Apparent Right ascension
Unknown
Apparent Declination
Unknown
Sunlit
N/A
Visualization observer readout
Local Sidereal Time
23:45:51
Azimuth
Unknown
Elevation
Unknown
Doppler factor
Unknown
Orbital elements
Apogee altitude
928.342 km
Perigee altitude
802.518 km
Semi-major axis
7,243.567 km
Eccentricity
0.00869
Inclination
98.8478°
RAAN
336.4001°
Arg. of periapsis
179.7035°
True anomaly
180.41288°
Mean anomaly
180.4201°
Eccentric anomaly
180.41648°
Mean motion
3.52058 °/min
Orbital period
102.26 mins
BSTAR
0.00095687
Loading maneuver chart data...
Computing Atmospheric mass density...
Loading historical data...
Loading historical data...
Loading historical data...
Loading historical data...
Loading historical data...
Loading historical data...
Loading historical data...

Documentation

Showing up to 5 results
|